[[{"header":{"parameterUnit":"m.s-1","parameterCategory":1,"la1":30.2991,"la2":30.254,"lo1":-89.0895,"lo2":-89.0444,"dy":0.0017,"dx":0.0017,"nx":28,"ny":28,"refTime":"2025-12-02T03:00:00:Z","depth":0,"parameterNumber":2,"parameterNumberName":"U-component_of_WINDS"},"data":[0,0,0,0,0,0,0,0,0,0,0,0,0,0,0,0,0,0,0,0,0,0,0,0,0,0,0,0,0,0,0,0,0,0,0,0,0,0,0,0,0,0,0,0,0,0,0,0,0,0,0,0,0,0,0,0,0,0,-1.7457,-1.7459,0,-1.7577,-1.7579,-1.758,-1.7563,-1.7561,-1.7559,-1.7557,-1.7681,-1.7686,-1.7691,0,0,0,0,0,0,0,0,0,0,0,0,0,-1.7214,-1.7218,-1.7457,-1.7459,-1.746,-1.7577,-1.7579,-1.758,-1.7564,-1.7561,-1.7559,-1.7557,-1.7679,-1.7685,-1.7692,0,0,0,0,0,0,0,0,0,0,0,0,0,-1.7325,-1.722,-1.7457,-1.7466,-1.7468,-1.7577,-1.7579,-1.7581,-1.7564,-1.7561,-1.7558,-1.7555,-1.7677,-1.7685,-1.7693,-1.78,0,0,-1.7716,-1.772,0,0,0,0,0,0,0,0,-1.7319,-1.7334,-1.7463,-1.7465,-1.7468,-1.7552,-1.7538,-1.7655,-1.7565,-1.7528,-1.7557,-1.7554,-1.7641,-1.7651,-1.768,-1.7806,-1.7811,-1.7717,-1.7722,-1.7725,-1.7727,0,0,0,0,0,0,0,-1.7311,-1.7329,-1.7505,-1.7465,-1.7468,-1.7464,-1.7477,-1.756,-1.76,-1.7531,-1.753,-1.7544,-1.7641,-1.7673,-1.7683,-1.7813,-1.7717,-1.7724,-1.7728,-1.7731,-1.8034,-1.8037,0,0,0,0,0,0,-1.7301,-1.7323,-1.7501,-1.7508,-1.7385,-1.7471,-1.7485,-1.7528,-1.7599,-1.7606,-1.7547,-1.7543,-1.7661,-1.7674,-1.7687,-1.7818,-1.7725,-1.7732,-1.7736,-1.803,-1.8034,-1.8038,0,0,0,0,0,0,-1.7296,-1.7317,-1.7496,-1.7415,-1.7438,-1.7478,-1.7527,-1.7532,-1.7564,-1.7611,-1.7618,-1.7572,-1.7659,-1.7677,-1.7772,-1.7822,-1.7736,-1.7743,-1.8026,-1.8032,-1.8036,-1.808,0,0,0,0,0,0,-1.7289,-1.7315,-1.7357,-1.7416,-1.7442,-1.7579,-1.753,-1.7537,-1.7577,-1.7573,-1.7636,-1.7643,-1.7658,-1.7761,-1.778,-1.7831,-1.7749,-1.8022,-1.8029,-1.8035,-1.8074,-1.8086,-1.8096,0,0,0,0,0,-1.728,-1.7364,-1.7359,-1.738,-1.7494,-1.7582,-1.7596,-1.7612,-1.7581,-1.7623,-1.7653,-1.7641,-1.7814,-1.7771,-1.7792,-1.7846,-1.8019,-1.8027,-1.8034,-1.807,-1.8084,-1.8096,0,0,0,0,0,0,-1.7309,-1.7372,-1.7367,-1.7472,-1.7522,-1.7579,-1.7632,-1.7626,-1.7686,-1.768,-1.7697,-1.7711,-1.7808,-1.7837,-1.7788,-1.7955,-1.7912,-1.7925,-1.7932,-1.7946,-1.7956,-1.7947,-1.7755,0,0,0,0,0,-1.7328,-1.7393,-1.7445,-1.7533,-1.7558,-1.7591,-1.7629,-1.7637,-1.7689,-1.771,-1.7747,-1.7798,-1.7864,-1.7907,-1.797,-1.8079,-1.8092,-1.8127,-1.8138,-1.8146,-1.8157,-1.8216,-1.8232,-1.8063,-1.8063,-1.8063,0,0,-1.7367,-1.7409,-1.745,-1.754,-1.7579,-1.7646,-1.7608,-1.7681,-1.7732,-1.7721,-1.7813,-1.7843,-1.7901,-1.8004,-1.8051,-1.8031,-1.8206,-1.8156,-1.8163,-1.8168,-1.8226,-1.8242,-1.8256,-1.8068,-1.8067,-1.8067,0,0,-1.7472,-1.7511,-1.7589,-1.7629,-1.7689,-1.771,-1.7729,-1.7787,-1.7806,-1.7899,-1.7892,-1.7953,-1.8066,-1.8107,-1.8143,-1.8265,-1.8257,-1.8286,-1.8342,-1.84,-1.8413,-1.8425,-1.8468,-1.8484,-1.8296,-1.8296,-1.8296,0,-1.7513,-1.7614,-1.7629,-1.7703,-1.7743,-1.7737,-1.7816,-1.7854,-1.7931,-1.7959,-1.7936,-1.8078,-1.8116,-1.8229,-1.8259,-1.8288,-1.831,-1.8278,-1.841,-1.8422,-1.8434,-1.8475,-1.8491,-1.8299,-1.8299,-1.8298,-1.8298,0,-1.7661,-1.7732,-1.7787,-1.7862,-1.7908,-1.7984,-1.8011,-1.8056,-1.8061,-1.8084,-1.818,-1.8226,-1.8298,-1.8326,-1.8331,-1.844,-1.8425,-1.8406,-1.8364,-1.8452,-1.8491,-1.8507,-1.8303,-1.8302,-1.8301,-1.8301,0,0,-1.7787,-1.787,-1.789,-1.7923,-1.7989,-1.8044,-1.812,-1.8191,-1.8229,-1.8283,-1.8347,-1.8443,-1.8426,-1.8467,-1.8477,-1.8528,-1.8621,-1.8502,-1.8504,-1.8522,-1.8744,-1.8757,-1.8775,-1.8616,-1.8619,-1.8622,-1.8738,0,-1.7898,-1.8031,-1.8048,-1.8167,-1.8232,-1.8227,-1.8294,-1.8341,-1.8366,-1.8425,-1.8453,-1.852,-1.8493,-1.8517,-1.8568,-1.8599,-1.8666,-1.8591,-1.8676,-1.8679,-1.866,-1.8795,-1.881,-1.8917,-1.8754,-1.8756,-1.8758,0,-1.8045,-1.8103,-1.8228,-1.8285,-1.8313,-1.8372,-1.8438,-1.8495,-1.855,-1.8564,-1.861,-1.8613,-1.8692,-1.8648,-1.8756,-1.8705,-1.8741,-1.8762,-1.8767,-1.8774,-1.8723,-1.8806,-1.8952,-1.8968,-1.8783,-1.8781,-1.8779,0,-1.8123,-1.8232,-1.8321,-1.8351,-1.842,-1.8461,-1.8492,-1.8544,-1.8585,-1.8643,-1.867,-1.8737,-1.8774,-1.8826,-1.8847,-1.8813,-1.8955,-1.8912,-1.8969,-1.8968,-1.8998,-1.8995,-1.9151,-1.9023,-1.9023,-1.9022,-1.9022,0,-1.8244,-1.8321,-1.8357,-1.8412,-1.8498,-1.8516,-1.8601,-1.863,-1.8676,-1.8737,-1.8738,-1.8795,-1.882,-1.8881,-1.8898,-1.8986,-1.9003,-1.9016,-1.902,-1.9016,-1.9014,-1.9039,-1.9031,-1.9027,-1.9026,-1.9025,-1.9024,0,-1.8345,-1.8373,-1.8469,-1.8527,-1.8544,-1.8604,-1.8654,-1.8707,-1.8731,-1.8808,-1.8827,-1.8866,-1.8938,-1.8964,-1.9052,-1.9064,-1.9165,-1.9163,-1.9146,-1.9147,-1.9202,-1.9196,-1.9378,-1.9402,-1.9259,-1.926,-1.9261,0,-1.842,-1.8479,-1.8543,-1.8584,-1.8616,-1.8681,-1.8724,-1.8745,-1.8789,-1.8856,-1.8901,-1.8972,-1.903,-1.9146,-1.9182,-1.9249,-1.9248,-1.9307,-1.9258,-1.9252,-1.9248,-1.9244,-1.925,-1.9316,-1.9317,-1.9319,-1.9319,0,-1.8551,-1.8562,-1.8622,-1.8688,-1.8739,-1.8792,-1.8843,-1.8877,-1.8905,-1.8955,-1.9028,-1.9074,-1.9163,-1.9234,-1.9304,-1.9336,-1.9333,-1.9335,-1.9351,-1.9347,-1.9335,-1.9342,-1.917,-1.933,-1.9329,-1.9328,-1.9328,-1.9327,-1.8641,-1.8693,-1.8746,-1.8814,-1.8855,-1.8903,-1.8956,-1.8987,-1.9048,-1.9122,-1.9132,-1.921,-1.9264,-1.9356,-1.9392,-1.9454,-1.9438,-1.9462,-1.9468,-1.9474,-1.9477,-1.9326,-1.9467,-1.9467,-1.9466,-1.9466,-1.9466,0,-1.877,-1.8805,-1.8867,-1.8939,-1.8992,-1.8985,-1.9042,-1.9087,-1.9156,-1.9206,-1.9264,-1.9348,-1.9417,-1.9459,-1.9529,-1.957,-1.9571,-1.9588,-1.9584,-1.9592,-1.9488,-1.9466,-1.9586,-1.9586,-1.9586,-1.9586,-1.9586,-1.9586,-1.8844,-1.8932,-1.8949,-1.9057,-1.9091,-1.9167,-1.92,-1.9245,-1.9285,-1.9379,-1.9436,-1.9463,-1.951,-1.9583,-1.9647,-1.9657,-1.9683,-1.9701,-1.971,-1.9612,-1.9599,-1.9587,-1.9567,-1.9707,-1.9707,-1.9809,-1.981,-1.9811]},{"header":{"parameterUnit":"m.s-1","parameterCategory":1,"la1":30.2991,"la2":30.254,"lo1":-89.0895,"lo2":-89.0444,"dy":0.0017,"dx":0.0017,"nx":28,"ny":28,"refTime":"2025-12-02T03:00:00:Z","depth":0,"parameterNumber":3,"parameterNumberName":"V-component_of_WINDS"},"data":[0,0,0,0,0,0,0,0,0,0,0,0,0,0,0,0,0,0,0,0,0,0,0,0,0,0,0,0,0,0,0,0,0,0,0,0,0,0,0,0,0,0,0,0,0,0,0,0,0,0,0,0,0,0,0,0,0,0,0.6003,0.6003,0,0.601,0.6011,0.6011,0.5987,0.5986,0.5986,0.5985,0.5992,0.5992,0.5993,0,0,0,0,0,0,0,0,0,0,0,0,0,0.5968,0.5969,0.6003,0.6003,0.6004,0.601,0.6011,0.6011,0.5987,0.5986,0.5985,0.5985,0.5991,0.5992,0.5993,0,0,0,0,0,0,0,0,0,0,0,0,0,0.598,0.5969,0.6003,0.5993,0.5992,0.601,0.6011,0.6011,0.5987,0.5986,0.5985,0.5984,0.5991,0.5992,0.5994,0.6023,0,0,0.5997,0.5998,0,0,0,0,0,0,0,0,0.598,0.5982,0.5994,0.5993,0.5993,0.5997,0.6001,0.6015,0.5988,0.5989,0.5985,0.5984,0.5994,0.5995,0.5999,0.6023,0.6023,0.5997,0.5998,0.5999,0.5999,0,0,0,0,0,0,0,0.5979,0.5981,0.6006,0.5994,0.5993,0.5987,0.5988,0.6003,0.5997,0.5989,0.5987,0.5988,0.5994,0.5998,0.5999,0.6023,0.5997,0.5999,0.5999,0.6,0.6071,0.6072,0,0,0,0,0,0,0.598,0.5981,0.6006,0.6006,0.5983,0.5989,0.5989,0.5996,0.5997,0.5996,0.5989,0.5987,0.5996,0.5997,0.5999,0.6033,0.5999,0.6,0.6001,0.607,0.6071,0.6072,0,0,0,0,0,0,0.5979,0.5982,0.6006,0.5993,0.5996,0.599,0.5999,0.5997,0.6001,0.5998,0.5996,0.5995,0.5995,0.5997,0.6017,0.6033,0.6001,0.6002,0.6069,0.607,0.6072,0.6101,0,0,0,0,0,0,0.5978,0.5982,0.5993,0.5994,0.5996,0.6024,0.6,0.5998,0.6004,0.6001,0.6002,0.6001,0.5995,0.6015,0.6018,0.6034,0.6003,0.6067,0.6069,0.6071,0.6099,0.6104,0.6108,0,0,0,0,0,0.5977,0.6001,0.5994,0.5997,0.6011,0.6025,0.6026,0.6018,0.6005,0.6016,0.6014,0.6001,0.603,0.6017,0.602,0.6037,0.6066,0.6069,0.6071,0.6097,0.6103,0.6108,0,0,0,0,0,0,0.6003,0.6001,0.5993,0.6018,0.6022,0.6021,0.6035,0.6025,0.6032,0.6029,0.6019,0.6019,0.6041,0.6041,0.6026,0.6065,0.6046,0.6049,0.6064,0.607,0.6074,0.6074,0.6004,0,0,0,0,0,0.6012,0.6024,0.6022,0.6044,0.6046,0.604,0.6046,0.6039,0.6043,0.6044,0.6043,0.6046,0.6056,0.6063,0.6072,0.6098,0.6098,0.6111,0.6116,0.6119,0.6123,0.6136,0.6142,0.6081,0.6081,0.6081,0,0,0.603,0.6031,0.6039,0.6049,0.6051,0.6064,0.6042,0.6056,0.6065,0.6046,0.6065,0.6064,0.6067,0.609,0.61,0.6091,0.6139,0.6123,0.6126,0.6127,0.614,0.6145,0.6151,0.6083,0.6082,0.6082,0,0,0.607,0.6072,0.6091,0.6093,0.6096,0.6092,0.6096,0.6096,0.6095,0.6113,0.6099,0.611,0.6127,0.613,0.6133,0.6173,0.6162,0.6176,0.62,0.6213,0.6218,0.6223,0.6237,0.6242,0.6179,0.6179,0.6179,0,0.6093,0.6111,0.6101,0.6117,0.6121,0.6104,0.6123,0.6126,0.6132,0.6135,0.6124,0.6145,0.6146,0.6169,0.6179,0.6182,0.6187,0.6176,0.6218,0.6223,0.6226,0.624,0.6245,0.6181,0.6181,0.618,0.618,0,0.6139,0.6151,0.6166,0.6172,0.6178,0.6195,0.6188,0.6195,0.6187,0.6184,0.6203,0.6203,0.6211,0.6216,0.6209,0.6239,0.6233,0.622,0.6201,0.6234,0.6247,0.6252,0.6183,0.6183,0.6182,0.6182,0,0,0.6197,0.6196,0.6202,0.6204,0.6206,0.6215,0.6231,0.6239,0.6246,0.625,0.6263,0.6277,0.6266,0.627,0.6262,0.6274,0.6306,0.626,0.626,0.6269,0.6338,0.6348,0.6354,0.6298,0.6299,0.63,0.6338,0,0.6236,0.6263,0.6254,0.6281,0.6293,0.6277,0.629,0.6292,0.6289,0.6298,0.6295,0.6306,0.6289,0.6292,0.6303,0.63,0.6319,0.6297,0.631,0.631,0.631,0.636,0.6371,0.6407,0.6343,0.6344,0.6344,0,0.6286,0.6292,0.632,0.6319,0.6324,0.6336,0.6343,0.6352,0.6354,0.6351,0.6355,0.6345,0.636,0.634,0.636,0.6345,0.635,0.6349,0.635,0.6351,0.633,0.6364,0.6418,0.6424,0.6352,0.6351,0.6351,0,0.6325,0.6341,0.6359,0.6362,0.6361,0.637,0.637,0.6371,0.6376,0.6382,0.6385,0.6392,0.6396,0.6402,0.6394,0.638,0.6415,0.6395,0.6413,0.6413,0.6422,0.6422,0.6479,0.6424,0.6424,0.6424,0.6424,0,0.6371,0.6389,0.6377,0.6389,0.6409,0.6398,0.6417,0.6415,0.6416,0.6427,0.6413,0.6423,0.6412,0.6421,0.6415,0.6432,0.6434,0.6432,0.643,0.6434,0.6434,0.6437,0.6435,0.6425,0.6425,0.6425,0.6425,0,0.6419,0.6412,0.6431,0.6429,0.6428,0.6443,0.6441,0.6451,0.6447,0.646,0.6463,0.6456,0.6466,0.6458,0.6468,0.6464,0.6488,0.6482,0.6487,0.6486,0.6504,0.6503,0.6566,0.6574,0.6514,0.6514,0.6515,0,0.6449,0.6462,0.6461,0.6467,0.6468,0.6478,0.6483,0.6472,0.6478,0.6481,0.6491,0.65,0.6506,0.6523,0.6519,0.6526,0.6521,0.6543,0.6522,0.6525,0.6522,0.6521,0.6523,0.6547,0.6548,0.6548,0.6549,0,0.6502,0.6498,0.6506,0.6512,0.6519,0.6523,0.6527,0.6533,0.6522,0.6529,0.6539,0.6544,0.6554,0.6563,0.6568,0.6568,0.6557,0.6555,0.656,0.6564,0.6566,0.6565,0.6499,0.6554,0.6553,0.6553,0.6553,0.6553,0.6542,0.6553,0.6554,0.6563,0.6564,0.6568,0.6577,0.6574,0.6582,0.6589,0.6582,0.6594,0.6595,0.6601,0.6602,0.6611,0.6603,0.6609,0.6611,0.6613,0.6616,0.6564,0.6612,0.6612,0.6612,0.6612,0.6612,0,0.6595,0.6594,0.6603,0.6608,0.6615,0.6603,0.6606,0.6613,0.6623,0.6625,0.6632,0.6643,0.6651,0.6647,0.6654,0.6662,0.6657,0.6665,0.6664,0.6664,0.6623,0.6619,0.6669,0.6668,0.6668,0.6668,0.6668,0.6668,0.6624,0.6642,0.6637,0.6655,0.6654,0.6666,0.6669,0.6671,0.6673,0.6686,0.6692,0.669,0.6689,0.6696,0.6703,0.6701,0.6705,0.6714,0.6711,0.6673,0.6667,0.6662,0.6658,0.6715,0.6715,0.6751,0.6751,0.6752]}]]